• în România
  • Lista ţărilor
  • Pe 7 zile
  • Temperatura apei
  • Hartă satelitară
  • Meteo pe hartă
  • Widget-uri
  • user-avatar
    Intrare

    Meteo pe oră la Ho Chi Minh

    Astăzi, 16 August, Joi

    Timp Temperatura Precipitaţii Vânt Presiune Umiditate
    00:00 +27°C° 0 mm 4 m/s 756 mmHg 88%
    01:00 +27°C° 0 mm 4 m/s 755 mmHg 90%
    02:00 +27°C° 0,5 mm 4 m/s 755 mmHg 90%
    03:00 +27°C° 0,5 mm 4 m/s 755 mmHg 90%
    04:00 +27°C° 0,5 mm 4 m/s 754 mmHg 90%
    05:00 +27°C° 0,1 mm 4 m/s 755 mmHg 89%
    06:00 +27°C° 0,1 mm 4 m/s 755 mmHg 88%
    07:00 +28°C° 0 mm 3 m/s 755 mmHg 86%
    08:00 +29°C° 0,1 mm 4 m/s 755 mmHg 80%
    09:00 +32°C° 0,1 mm 5 m/s 755 mmHg 74%
    10:00 +33°C° 0,1 mm 5 m/s 755 mmHg 68%
    11:00 +33°C° 0,6 mm 6 m/s 754 mmHg 67%
    12:00 +34°C° 0,6 mm 6 m/s 754 mmHg 65%
    13:00 +34°C° 0 mm 6 m/s 753 mmHg 64%
    14:00 +34°C° 1,1 mm 6 m/s 753 mmHg 66%
    15:00 +34°C° 1,1 mm 6 m/s 753 mmHg 68%
    16:00 +33°C° 1,1 mm 5 m/s 752 mmHg 69%
    17:00 +32°C° 0,1 mm 5 m/s 753 mmHg 73%
    18:00 +30°C° 0,1 mm 5 m/s 753 mmHg 76%
    19:00 +28°C° 0,1 mm 4 m/s 753 mmHg 80%
    20:00 +28°C° 0 mm 4 m/s 754 mmHg 81%
    21:00 +28°C° 0 mm 4 m/s 754 mmHg 83%
    22:00 +28°C° 0 mm 4 m/s 754 mmHg 84%
    23:00 +28°C° 0 mm 4 m/s 754 mmHg 85%

    Mâine, 17 August, Vineri

    Timp Temperatura Precipitaţii Vânt Presiune Umiditate
    00:00 +27°C° 0 mm 3 m/s 754 mmHg 86%
    01:00 +27°C° 0 mm 3 m/s 753 mmHg 87%
    02:00 +27°C° 0 mm 3 m/s 753 mmHg 87%
    03:00 +27°C° 0 mm 3 m/s 753 mmHg 87%
    04:00 +27°C° 0 mm 3 m/s 753 mmHg 88%
    05:00 +27°C° 0,4 mm 3 m/s 753 mmHg 87%
    06:00 +28°C° 0,4 mm 3 m/s 753 mmHg 86%
    07:00 +28°C° 0,4 mm 4 m/s 753 mmHg 86%
    08:00 +29°C° 1 mm 4 m/s 753 mmHg 81%
    09:00 +30°C° 1 mm 5 m/s 753 mmHg 76%
    10:00 +33°C° 1 mm 6 m/s 753 mmHg 71%
    11:00 +33°C° 1,4 mm 6 m/s 753 mmHg 71%
    12:00 +33°C° 1,4 mm 6 m/s 753 mmHg 70%
    13:00 +33°C° 1,4 mm 6 m/s 752 mmHg 70%
    14:00 +33°C° 0,6 mm 6 m/s 752 mmHg 71%
    15:00 +33°C° 0,6 mm 5 m/s 751 mmHg 72%
    16:00 +32°C° 0,6 mm 5 m/s 751 mmHg 73%
    17:00 +32°C° 1,1 mm 5 m/s 751 mmHg 76%
    18:00 +30°C° 1,1 mm 4 m/s 752 mmHg 80%
    19:00 +29°C° 1,1 mm 4 m/s 752 mmHg 84%
    20:00 +28°C° 0,8 mm 4 m/s 753 mmHg 85%
    21:00 +28°C° 0,8 mm 3 m/s 753 mmHg 86%
    22:00 +28°C° 0,8 mm 3 m/s 754 mmHg 87%
    23:00 +28°C° 0,8 mm 3 m/s 754 mmHg 88%

    Poimâine, 18 August, Sâmbătă

    Timp Temperatura Precipitaţii Vânt Presiune Umiditate
    00:00 +28°C° 0,8 mm 3 m/s 754 mmHg 89%
    01:00 +28°C° 0,8 mm 3 m/s 754 mmHg 90%
    02:00 +27°C° 1 mm 3 m/s 753 mmHg 91%
    03:00 +27°C° 1 mm 3 m/s 753 mmHg 92%
    04:00 +27°C° 1 mm 3 m/s 753 mmHg 93%
    05:00 +27°C° 0,3 mm 3 m/s 753 mmHg 91%
    06:00 +28°C° 0,3 mm 3 m/s 754 mmHg 90%
    07:00 +28°C° 0,3 mm 4 m/s 754 mmHg 89%
    08:00 +29°C° 0,2 mm 4 m/s 754 mmHg 83%
    09:00 +32°C° 0,2 mm 5 m/s 754 mmHg 77%
    10:00 +33°C° 0,2 mm 5 m/s 755 mmHg 71%
    11:00 +33°C° 2 mm 5 m/s 754 mmHg 72%
    12:00 +33°C° 2 mm 5 m/s 753 mmHg 73%
    13:00 +33°C° 2 mm 6 m/s 753 mmHg 73%
    14:00 +32°C° 2 mm 5 m/s 752 mmHg 76%
    15:00 +32°C° 2 mm 5 m/s 752 mmHg 78%
    16:00 +30°C° 2 mm 4 m/s 752 mmHg 81%
    17:00 +30°C° 0,9 mm 4 m/s 752 mmHg 83%
    18:00 +29°C° 0,9 mm 4 m/s 753 mmHg 85%
    19:00 +28°C° 0,9 mm 3 m/s 753 mmHg 88%
    20:00 +28°C° 1,5 mm 3 m/s 754 mmHg 89%
    21:00 +28°C° 1,5 mm 3 m/s 755 mmHg 90%
    22:00 +28°C° 1,5 mm 3 m/s 756 mmHg 91%
    23:00 +27°C° 0,8 mm 3 m/s 755 mmHg 91%

    19 August, Duminică

    Timp Temperatura Precipitaţii Vânt Presiune Umiditate
    00:00 +27°C° 0,8 mm 2 m/s 755 mmHg 92%
    01:00 +27°C° 0,8 mm 2 m/s 755 mmHg 93%
    02:00 +27°C° 0,5 mm 2 m/s 755 mmHg 93%
    03:00 +27°C° 0,5 mm 2 m/s 754 mmHg 93%
    04:00 +27°C° 0,5 mm 2 m/s 754 mmHg 93%
    05:00 +27°C° 0,3 mm 2 m/s 755 mmHg 92%
    06:00 +27°C° 0,3 mm 2 m/s 755 mmHg 91%
    07:00 +27°C° 0,3 mm 2 m/s 755 mmHg 90%
    08:00 +28°C° 0,8 mm 3 m/s 756 mmHg 85%
    09:00 +30°C° 0,8 mm 3 m/s 756 mmHg 81%
    10:00 +32°C° 0,8 mm 4 m/s 756 mmHg 76%
    11:00 +32°C° 1,1 mm 4 m/s 756 mmHg 74%
    12:00 +33°C° 1,1 mm 5 m/s 755 mmHg 72%
    13:00 +33°C° 1,1 mm 5 m/s 755 mmHg 70%
    14:00 +33°C° 0,5 mm 5 m/s 754 mmHg 69%
    15:00 +33°C° 0,5 mm 5 m/s 754 mmHg 69%
    16:00 +33°C° 0,5 mm 5 m/s 753 mmHg 69%
    17:00 +32°C° 0,1 mm 4 m/s 754 mmHg 74%
    18:00 +30°C° 0,1 mm 3 m/s 754 mmHg 79%
    19:00 +29°C° 0,1 mm 2 m/s 755 mmHg 83%
    20:00 +28°C° 0 mm 2 m/s 756 mmHg 84%
    21:00 +28°C° 0 mm 2 m/s 756 mmHg 85%
    22:00 +28°C° 0 mm 2 m/s 757 mmHg 86%
    23:00 +28°C° 0,1 mm 2 m/s 756 mmHg 87%

    20 August, Luni

    Timp Temperatura Precipitaţii Vânt Presiune Umiditate
    00:00 +28°C° 0,1 mm 2 m/s 756 mmHg 88%
    01:00 +27°C° 0,1 mm 2 m/s 756 mmHg 89%
    02:00 +27°C° 1 mm 1 m/s 755 mmHg 90%
    03:00 +27°C° 1 mm 1 m/s 755 mmHg 91%
    04:00 +27°C° 1 mm 1 m/s 755 mmHg 93%
    05:00 +27°C° 0,9 mm 1 m/s 755 mmHg 91%
    06:00 +28°C° 0,9 mm 1 m/s 756 mmHg 90%
    07:00 +28°C° 0,9 mm 1 m/s 756 mmHg 89%
    08:00 +29°C° 0,8 mm 2 m/s 756 mmHg 83%
    09:00 +31°C° 0,8 mm 3 m/s 757 mmHg 78%
    10:00 +33°C° 0,8 mm 4 m/s 757 mmHg 72%
    11:00 +33°C° 1,7 mm 4 m/s 756 mmHg 72%
    12:00 +33°C° 1,7 mm 4 m/s 755 mmHg 71%
    13:00 +34°C° 1,7 mm 4 m/s 755 mmHg 71%
    14:00 +33°C° 2,5 mm 4 m/s 754 mmHg 73%
    15:00 +33°C° 2,5 mm 4 m/s 754 mmHg 76%
    16:00 +32°C° 2,5 mm 4 m/s 754 mmHg 78%
    17:00 +30°C° 2,4 mm 4 m/s 754 mmHg 81%
    18:00 +29°C° 2,4 mm 3 m/s 755 mmHg 85%
    19:00 +28°C° 2,4 mm 3 m/s 755 mmHg 88%
    20:00 +28°C° 0,1 mm 3 m/s 756 mmHg 89%
    21:00 +28°C° 0,1 mm 3 m/s 756 mmHg 89%
    22:00 +28°C° 0,1 mm 3 m/s 757 mmHg 90%
    23:00 +28°C° 0 mm 3 m/s 756 mmHg 90%

    21 August, Marţi

    Timp Temperatura Precipitaţii Vânt Presiune Umiditate
    00:00 +27°C° 0 mm 3 m/s 756 mmHg 91%
    01:00 +27°C° 0 mm 3 m/s 755 mmHg 91%
    02:00 +27°C° 0 mm 3 m/s 755 mmHg 92%
    03:00 +27°C° 0 mm 2 m/s 755 mmHg 93%
    04:00 +27°C° 0 mm 2 m/s 754 mmHg 93%
    05:00 +27°C° 0 mm 2 m/s 755 mmHg 92%
    06:00 +27°C° 0 mm 3 m/s 755 mmHg 91%
    07:00 +28°C° 0 mm 3 m/s 755 mmHg 89%
    08:00 +29°C° 0 mm 3 m/s 755 mmHg 83%
    09:00 +32°C° 0 mm 4 m/s 755 mmHg 76%
    10:00 +33°C° 0 mm 4 m/s 756 mmHg 70%
    11:00 +34°C° 1,2 mm 5 m/s 755 mmHg 69%
    12:00 +34°C° 1,2 mm 5 m/s 754 mmHg 68%
    13:00 +34°C° 1,2 mm 5 m/s 753 mmHg 67%
    14:00 +34°C° 2,6 mm 4 m/s 753 mmHg 70%
    15:00 +33°C° 2,6 mm 4 m/s 753 mmHg 73%
    16:00 +32°C° 2,6 mm 4 m/s 752 mmHg 76%
    17:00 +31°C° 1,2 mm 3 m/s 753 mmHg 79%
    18:00 +30°C° 1,2 mm 3 m/s 754 mmHg 82%
    19:00 +29°C° 1,2 mm 3 m/s 754 mmHg 86%
    20:00 +28°C° 0,2 mm 3 m/s 754 mmHg 86%
    21:00 +28°C° 0,2 mm 3 m/s 755 mmHg 87%
    22:00 +28°C° 0,2 mm 3 m/s 755 mmHg 88%
    23:00 +28°C° 0 mm 3 m/s 755 mmHg 89%
    Arată mai mult